Hourly Data Report for July 19, 2021

BORDEN AWOS
ONTARIO
Current Station Operator: DND

44°16'20.000" N
79°54'42.000" W
222.50 m
611B002
71534
YBN

Download Data

Hourly Data (July 2021)
Hourly Data Report for July 19, 2021
TIME
LST
Temp Definition
°C
Dew Point Definition
°C
Rel Hum Definition
%
Precip. Amount Definition
mm

Wind Dir Definition
10's deg

Wind Spd Definition
km/h
Visibility Definition
km
Stn Press Definition
kPa
Hmdx Definition


Wind Chill Definition


Weather Definition


00:00 15.5 14.8 96   25 4 14.5 99.29     LegendNANA
01:00 14.8 14.3 97     0 9.7 99.24     LegendNANA
02:00 14.6 14.3 98     0 12.9 99.22     LegendNANA
03:00 13.9 13.5 97   17 4 14.5 99.20     LegendNANA
04:00 13.9 13.5 97     0 8.0 99.22     LegendNANA
05:00 13.6 13.3 98     0 11.3 99.23     LegendNANA
06:00 15.2 14.7 97     0 14.5 99.22     LegendNANA
07:00 18.8 17.0 89   31 4 14.5 99.24     LegendNANA
08:00 21.8 18.0 79   36 9 14.5 99.27 28   LegendNANA
09:00 23.9 19.0 74   35 9 14.5 99.25 31   LegendNANA
10:00 26.1 19.8 68   35 11 14.5 99.22 34   LegendNANA
11:00 26.8 19.7 65   34 9 12.9 99.18 34   LegendNANA
12:00 27.1 18.9 61   31 19 12.9 99.16 34   LegendNANA
13:00 27.0 19.2 62   35 11 12.9 99.14 34   LegendNANA
14:00 26.9 18.7 61   34 11 12.9 99.14 33   LegendNANA
15:00 27.4 18.7 59   31 9 12.9 99.09 34   LegendNANA
16:00 27.1 18.0 58   33 13 12.9 99.06 33   LegendNANA
17:00 26.4 18.6 62   34 7 12.9 99.03 33   LegendNANA
18:00 25.8 19.3 67   36 6 12.9 99.02 33   LegendNANA
19:00 24.8 19.9 74     0 12.9 98.99 32   LegendNANA
20:00 22.3 19.7 85   28 4 11.3 98.98 30   LegendNANA
21:00 20.2 19.2 94     0 8.0 99.02 27   LegendNANA
22:00
23:00 18.2 17.5 96     0 5.6 99.02     LegendNANA

Notes on Data Quality.

Legend

  • E = Estimated
  • M = Missing
  • NA = Not Available*
  • [empty] = Indicates an unobserved value
Date modified: